Date String (YYYY-MM-DD hh:mm:ss) UTC,Instrument flags,Ambient pressure (hPa),Sample flow (lpm),Bypass flow (lpm),Sample temperature (°C),Ambient temperature (°C),ASC tube jacket temperature (°C),LED temperature (°C),Box temperature (°C),Sample RH (%),Span deviation,Mass concentration (μg/m³),Mass concentration (μg/m³),Mass concentration (μg/m³)
DateTimeUTC,F1_M11,P_M11,Q1_M11,Q2_M11,T1_M11,T2_M11,T3_M11,T4_M11,T5_M11,U1_M11,ZSPAN_M11,X0_M11,X2_M11,X1_M11
2022-07-19 14:00:00,,0827.5,4.99,0.00,29.8,27.7,00.0,38.3,31.6,24.7,0000.0,0014.12,0005.28,0003.67
2022-07-19 14:01:00,,0827.5,5.01,0.00,29.7,27.5,00.0,38.3,31.5,24.6,0000.0,0013.76,0005.31,0003.65
2022-07-19 14:02:00,,0827.5,5.00,0.00,29.7,27.5,00.0,38.3,31.4,24.5,0000.0,0013.66,0005.34,0003.64
2022-07-19 14:03:00,,0827.5,4.99,0.00,29.6,27.6,00.0,38.3,31.4,24.7,0000.0,0013.63,0005.34,0003.64
2022-07-19 14:04:00,,0827.5,5.00,0.00,29.6,27.8,00.0,38.3,31.4,25.0,0000.0,0013.59,0005.31,0003.64
2022-07-19 14:05:00,,0827.5,5.00,0.00,29.6,28.0,00.0,38.4,31.5,24.4,0000.0,0013.92,0005.33,0003.63
2022-07-19 14:06:00,,0827.5,5.00,0.00,29.6,28.1,00.0,38.4,31.5,24.6,0000.0,0013.98,0005.33,0003.62
2022-07-19 14:07:00,,0827.5,5.00,0.00,29.7,28.3,00.0,38.4,31.6,24.5,0000.0,0013.51,0005.35,0003.61
2022-07-19 14:08:00,,0827.5,5.01,0.00,29.7,28.4,00.0,38.4,31.6,23.7,0000.0,0013.10,0005.38,0003.60
2022-07-19 14:09:00,,0827.5,4.99,0.00,29.7,28.6,00.0,38.4,31.7,24.1,0000.0,0012.78,0005.42,0003.60
2022-07-19 14:10:00,,0827.5,5.00,0.00,29.8,28.4,00.0,38.4,31.7,24.0,0000.0,0012.48,0005.38,0003.59
2022-07-19 14:11:00,,0827.6,4.99,0.00,29.8,27.8,00.0,38.3,31.7,24.5,0000.0,0012.65,0005.35,0003.59
2022-07-19 14:12:00,,0827.5,5.01,0.00,29.7,27.5,00.0,38.3,31.6,24.8,0000.0,0013.29,0005.37,0003.59
2022-07-19 14:13:00,,0827.6,4.99,0.00,29.7,27.5,00.0,38.3,31.5,24.5,0000.0,0014.13,0005.39,0003.61
2022-07-19 14:14:00,,0827.6,5.00,0.00,29.7,27.7,00.0,38.3,31.4,24.0,0000.0,0014.15,0005.40,0003.61
2022-07-19 14:15:00,,0827.6,5.01,0.00,29.6,27.8,00.0,38.3,31.4,23.7,0000.0,0013.66,0005.43,0003.63
2022-07-19 14:16:00,,0827.6,5.00,0.00,29.6,28.0,00.0,38.4,31.5,24.7,0000.0,0013.10,0005.40,0003.63
2022-07-19 14:17:00,,0827.7,5.00,0.00,29.7,28.1,00.0,38.4,31.5,24.0,0000.0,0012.97,0005.40,0003.63
2022-07-19 14:18:00,,0827.7,4.99,0.00,29.7,28.3,00.0,38.4,31.6,23.5,0000.0,0013.08,0005.37,0003.64
2022-07-19 14:19:00,,0827.7,5.00,0.00,29.7,28.4,00.0,38.4,31.6,24.3,0000.0,0013.79,0005.36,0003.64
2022-07-19 14:20:00,,0827.7,5.00,0.00,29.7,28.4,00.0,38.4,31.7,24.9,0000.0,0013.68,0005.32,0003.62
2022-07-19 14:21:00,,0827.7,5.00,0.00,29.7,27.8,00.0,38.3,31.6,24.3,0000.0,0013.71,0005.35,0003.63
2022-07-19 14:22:00,,0827.8,5.00,0.00,29.7,27.4,00.0,38.3,31.5,24.7,0000.0,0013.47,0005.35,0003.62
2022-07-19 14:23:00,,0827.7,4.99,0.00,29.7,27.4,00.0,38.3,31.5,24.6,0000.0,0012.79,0005.31,0003.62
2022-07-19 14:24:00,,0827.7,4.99,0.00,29.6,27.6,00.0,38.3,31.4,24.8,0000.0,0012.28,0005.32,0003.61
2022-07-19 14:25:00,,0827.7,5.01,0.00,29.6,27.7,00.0,38.3,31.4,25.2,0000.0,0012.06,0005.29,0003.60
2022-07-19 14:26:00,,0827.7,5.00,0.00,29.6,27.9,00.0,38.3,31.4,25.2,0000.0,0013.90,0005.29,0003.58
2022-07-19 14:27:00,,0827.7,4.99,0.00,29.6,28.1,00.0,38.3,31.5,25.3,0000.0,0013.83,0005.23,0003.57
2022-07-19 14:28:00,,0827.7,5.00,0.00,29.6,28.2,00.0,38.3,31.5,25.4,0000.0,0014.52,0005.26,0003.57
2022-07-19 14:29:00,,0827.7,5.01,0.00,29.7,28.4,00.0,38.4,31.6,25.8,0000.0,0014.59,0005.27,0003.56
2022-07-19 14:30:00,,0827.7,4.99,0.00,29.7,28.4,00.0,38.4,31.7,26.3,0000.0,0013.82,0005.25,0003.55
2022-07-19 14:31:00,,0827.7,5.01,0.00,29.7,27.9,00.0,38.3,31.6,26.4,0000.0,0014.11,0005.23,0003.57
2022-07-19 14:32:00,,0827.7,5.00,0.00,29.7,27.4,00.0,38.3,31.5,26.3,0000.0,0015.38,0005.27,0003.58
2022-07-19 14:33:00,,0827.7,5.00,0.00,29.6,27.4,00.0,38.3,31.4,26.6,0000.0,0015.51,0005.30,0003.59
2022-07-19 14:34:00,,0827.7,5.00,0.00,29.6,27.5,00.0,38.3,31.4,26.9,0000.0,0015.75,0005.29,0003.60
2022-07-19 14:35:00,,0827.7,4.99,0.00,29.6,27.6,00.0,38.3,31.4,27.6,0000.0,0016.17,0005.25,0003.62
2022-07-19 14:36:00,,0827.7,4.99,0.00,29.6,27.8,00.0,38.3,31.4,27.8,0000.0,0016.21,0005.26,0003.63
2022-07-19 14:37:00,,0827.7,5.00,0.00,29.6,28.0,00.0,38.3,31.5,28.2,0000.0,0014.68,0005.22,0003.64
2022-07-19 14:38:00,,0827.7,4.99,0.00,29.6,28.2,00.0,38.3,31.5,28.2,0000.0,0014.83,0005.30,0003.66
2022-07-19 14:39:00,,0827.7,5.00,0.00,29.6,28.3,00.0,38.3,31.5,28.2,0000.0,0015.61,0005.33,0003.68
2022-07-19 14:40:00,,0827.7,5.00,0.00,29.7,28.4,00.0,38.3,31.6,27.1,0000.0,0016.73,0005.32,0003.68
2022-07-19 14:41:00,,0827.8,5.02,0.00,29.7,27.8,00.0,38.3,31.6,27.5,0000.0,0017.68,0005.34,0003.70
2022-07-19 14:42:00,,0827.7,5.01,0.00,29.6,27.2,00.0,38.2,31.4,26.5,0000.0,0017.99,0005.34,0003.71
2022-07-19 14:43:00,,0827.7,5.00,0.00,29.6,27.1,00.0,38.2,31.4,25.9,0000.0,0017.46,0005.33,0003.71
2022-07-19 14:44:00,,0827.8,5.00,0.00,29.5,27.2,00.0,38.2,31.3,26.3,0000.0,0017.43,0005.28,0003.70
2022-07-19 14:45:00,,0827.7,4.99,0.00,29.5,27.4,00.0,38.2,31.3,27.0,0000.0,0017.79,0005.30,0003.70
2022-07-19 14:46:00,,0827.7,5.00,0.00,29.5,27.6,00.0,38.2,31.3,27.3,0000.0,0017.63,0005.33,0003.70
2022-07-19 14:47:00,,0827.7,5.01,0.00,29.5,27.8,00.0,38.2,31.3,27.9,0000.0,0017.88,0005.35,0003.70
2022-07-19 14:48:00,,0827.7,5.00,0.00,29.5,28.0,00.0,38.2,31.4,27.5,0000.0,0017.96,0005.37,0003.71
2022-07-19 14:49:00,,0827.7,4.99,0.00,29.5,28.1,00.0,38.2,31.4,27.4,0000.0,0018.13,0005.42,0003.73
2022-07-19 14:50:00,,0827.7,5.01,0.00,29.5,28.3,00.0,38.3,31.5,27.4,0000.0,0017.89,0005.38,0003.73
2022-07-19 14:51:00,,0827.7,4.99,0.00,29.6,28.4,00.0,38.3,31.5,27.1,0000.0,0016.78,0005.46,0003.74
2022-07-19 14:52:00,,0827.7,5.01,0.00,29.6,27.9,00.0,38.2,31.5,27.3,0000.0,0016.13,0005.48,0003.75
2022-07-19 14:53:00,,0827.7,5.00,0.00,29.6,27.3,00.0,38.2,31.4,27.1,0000.0,0015.65,0005.50,0003.75
2022-07-19 14:54:00,,0827.7,4.99,0.00,29.5,27.1,00.0,38.2,31.3,27.4,0000.0,0015.26,0005.48,0003.76
2022-07-19 14:55:00,,0827.6,5.00,0.00,29.5,27.2,00.0,38.2,31.2,27.3,0000.0,0015.12,0005.52,0003.77
2022-07-19 14:56:00,,0827.6,5.00,0.00,29.4,27.3,00.0,38.2,31.2,27.7,0000.0,0015.02,0005.55,0003.79
2022-07-19 14:57:00,,0827.6,5.00,0.00,29.4,27.5,00.0,38.2,31.2,28.2,0000.0,0014.77,0005.57,0003.81
2022-07-19 14:58:00,,0827.6,5.00,0.00,29.4,27.7,00.0,38.2,31.3,28.3,0000.0,0014.61,0005.59,0003.83
2022-07-19 14:59:00,,0827.6,5.00,0.00,29.4,27.9,00.0,38.2,31.3,28.1,0000.0,0014.75,0005.67,0003.84
